EW1645 Weather Reports


time (UTC)temp
F
wind
direction
speed
knots
gust
knots
rain 1hr
in
rain 24hr
in
rain mn
in
humidity
%
barometer
mb
20260504081508 50 238 0.0 0.0 0.00 0.00 0.00 61 1016.8
20260504081008 50 238 0.0 0.0 0.00 0.00 0.00 60 1016.9
20260504080507 49 238 0.0 0.0 0.00 0.00 0.00 60 1016.9
20260504050507 47 292 0.0 0.0 0.00 0.00 0.00 67 1017.5
20260504050007 47 295 0.0 0.0 0.00 0.00 0.00 68 1017.4
20260504045507 47 352 0.0 0.0 0.00 0.00 0.00 70 1017.3
20260504045007 47 352 0.0 0.0 0.00 0.00 0.00 70 1017.2
20260504044507 47 352 0.0 0.0 0.00 0.00 0.00 69 1017.2
20260504044009 47 352 0.0 0.0 0.00 0.00 0.00 69 1017.2
20260504043507 47 352 0.0 0.0 0.00 0.00 0.00 68 1017.0
20260504043007 47 29 0.0 0.0 0.00 0.00 0.00 67 1016.8
20260504042007 48 354 0.9 1.7 0.00 0.00 0.00 66 1017.0
20260504041508 48 265 0.0 1.7 0.00 0.00 0.00 62 1016.9
20260504041007 46 248 0.0 0.9 0.00 0.00 0.00 68 1017.0
20260504040507 46 248 0.0 0.9 0.00 0.00 0.00 69 1017.0
20260504040006 46 244 0.0 1.7 0.00 0.00 0.00 67 1016.9
20260504035507 46 257 0.9 1.7 0.00 0.00 0.00 64 1017.1
20260504034007 45 192 0.0 0.9 0.00 0.00 0.00 66 1017.1
20260504033007 45 215 0.0 0.0 0.00 0.00 0.00 63 1017.1
20260504032507 45 215 0.0 0.9 0.00 0.00 0.00 63 1017.1
20260504032007 45 215 0.0 0.9 0.00 0.00 0.00 63 1017.1
20260504031507 46 215 0.0 0.9 0.00 0.00 0.00 62 1017.2
20260504031007 46 215 0.0 0.0 0.00 0.00 0.00 62 1017.2
20260504030007 47 214 0.0 0.9 0.00 0.00 0.00 63 1017.2
20260504025507 47 214 0.0 0.0 0.00 0.00 0.00 60 1017.2
20260504025007 48 214 0.0 0.9 0.00 0.00 0.00 60 1017.2
20260504024507 48 214 0.0 0.9 0.00 0.00 0.00 59 1017.2
20260504024007 48 261 0.0 0.9 0.00 0.00 0.00 57 1017.3
20260504023507 49 261 0.0 0.9 0.00 0.00 0.00 55 1017.3
20260504023007 49 262 0.0 1.7 0.00 0.00 0.00 54 1017.3
20260504022506 49 267 0.9 2.6 0.00 0.00 0.00 55 1017.2
20260504022008 49 233 0.0 2.6 0.00 0.00 0.00 55 1017.1
20260504021507 49 220 0.9 2.6 0.00 0.00 0.00 54 1017.0
20260504021007 49 229 0.0 1.7 0.00 0.00 0.00 54 1017.0
20260504020507 49 252 0.9 1.7 0.00 0.00 0.00 53 1016.9
20260504020007 50 177 0.9 2.6 0.00 0.00 0.00 53 1016.9
20260504015507 50 237 0.0 2.6 0.00 0.00 0.00 52 1016.8
20260504015006 50 258 0.0 2.6 0.00 0.00 0.00 53 1016.8
20260504014507 50 255 0.0 2.6 0.00 0.00 0.00 54 1016.8
20260504014007 50 266 0.0 2.6 0.00 0.00 0.00 55 1016.6
20260504013507 50 62 0.0 0.9 0.00 0.00 0.00 54 1016.6
20260504013006 50 251 0.0 0.9 0.00 0.00 0.00 54 1016.6
20260504012507 51 251 0.0 0.9 0.00 0.00 0.00 54 1016.6
20260504012007 51 252 0.0 0.9 0.00 0.00 0.00 52 1016.5
20260504011506 51 247 0.0 1.7 0.00 0.00 0.00 52 1016.5
20260504011007 51 236 0.0 0.9 0.00 0.00 0.00 52 1016.4
20260504010506 52 277 0.0 1.7 0.00 0.00 0.00 51 1016.4
20260504005507 53 260 0.0 0.9 0.00 0.00 0.00 50 1016.3
20260504005006 53 208 0.0 0.9 0.00 0.00 0.00 49 1016.3
20260504004507 53 226 0.0 0.9 0.00 0.00 0.00 50 1016.2
20260504003506 55 217 0.0 0.0 0.00 0.00 0.00 46 1016.0
20260504003007 55 217 0.0 0.9 0.00 0.00 0.00 47 1016.0
20260504002506 56 217 0.0 0.0 0.00 0.00 0.00 45 1015.9
20260504002006 56 217 0.0 0.0 0.00 0.00 0.00 43 1016.0
20260504001507 58 224 0.0 0.9 0.00 0.00 0.00 42 1016.0
20260504001006 59 224 0.0 0.0 0.00 0.00 0.00 39 1016.0
20260504000506 60 224 0.0 0.0 0.00 0.00 0.00 37 1016.0
20260504000007 61 224 0.0 0.0 0.00 0.00 0.00 38 1016.0
20260503235506 62 224 0.0 0.0 0.00 0.00 0.00 36 1015.9
20260503233506 64 224 0.0 0.9 0.00 0.00 0.00 30 1015.8
20260503232007 66 101 0.0 0.0 0.00 0.00 0.00 30 1015.8
20260503231507 65 244 0.9 2.6 0.00 0.00 0.00 26 1015.8
20260503231006 67 276 0.9 0.9 0.00 0.00 0.00 26 1015.7
20260503230507 66 283 0.0 1.7 0.00 0.00 0.00 29 1015.6
20260503230006 65 230 0.9 1.7 0.00 0.00 0.00 28 1015.7
20260503225506 65 260 0.9 4.3 0.00 0.00 0.00 27 1015.7
20260503225008 65 137 1.7 4.3 0.00 0.00 0.00 26 1015.8
20260503224506 65 285 0.9 4.3 0.00 0.00 0.00 27 1015.8
20260503224007 65 274 1.7 4.3 0.00 0.00 0.00 26 1015.8
20260503223506 65 236 1.7 4.3 0.00 0.00 0.00 27 1015.8
20260503223007 66 249 1.7 4.3 0.00 0.00 0.00 26 1015.9
20260503222006 66 227 0.9 2.6 0.00 0.00 0.00 26 1015.9
20260503221506 66 208 0.9 2.6 0.00 0.00 0.00 26 1016.0
20260503221006 65 252 0.9 4.3 0.00 0.00 0.00 26 1016.1
20260503220006 66 309 2.6 5.2 0.00 0.00 0.00 27 1016.1
20260503215006 66 258 0.9 5.2 0.00 0.00 0.00 27 1016.0
20260503214506 65 228 1.7 2.6 0.00 0.00 0.00 26 1016.1
20260503214007 65 272 1.7 4.3 0.00 0.00 0.00 26 1016.2
20260503213506 65 218 0.9 7.8 0.00 0.00 0.00 28 1016.3
20260503213006 65 249 1.7 6.1 0.00 0.00 0.00 26 1016.4
20260503212006 66 246 1.7 5.2 0.00 0.00 0.00 26 1016.3
20260503211506 66 330 0.9 2.6 0.00 0.00 0.00 26 1016.3
20260503211006 66 185 0.0 2.6 0.00 0.00 0.00 27 1016.3
20260503205507 64 284 0.9 2.6 0.00 0.00 0.00 26 1016.5
20260503205006 65 251 2.6 8.7 0.00 0.00 0.00 25 1016.5
20260503204506 65 268 0.9 5.2 0.00 0.00 0.00 28 1016.5
20260503204006 65 41 1.7 6.1 0.00 0.00 0.00 26 1016.6
20260503203506 64 246 1.7 4.3 0.00 0.00 0.00 27 1016.7
20260503203006 64 266 2.6 8.7 0.00 0.00 0.00 25 1016.7
20260503202006 65 39 0.9 2.6 0.00 0.00 0.00 31 1016.7
20260503201505 64 222 2.6 5.2 0.00 0.00 0.00 29 1016.8
20260503201006 63 222 1.7 10.4 0.00 0.00 0.00 28 1016.9
20260503200506 64 250 0.9 2.6 0.00 0.00 0.00 28 1016.9
20260503200006 63 229 0.9 4.3 0.00 0.00 0.00 26 1017.1
20260503195505 63 235 2.6 5.2 0.00 0.00 0.00 28 1017.3
20260503195006 64 249 0.9 5.2 0.00 0.00 0.00 29 1017.3
20260503194506 64 313 0.9 4.3 0.00 0.00 0.00 31 1017.4
20260503194005 62 220 1.7 4.3 0.00 0.00 0.00 31 1017.5
20260503193506 63 249 2.6 11.3 0.00 0.00 0.00 28 1017.6
20260503193006 63 295 0.9 4.3 0.00 0.00 0.00 29 1017.5
20260503192506 64 41 0.9 2.6 0.00 0.00 0.00 29 1017.6
20260503192005 64 127 0.9 7.0 0.00 0.00 0.00 29 1017.8
20260503191006 63 236 1.7 4.3 0.00 0.00 0.00 30 1017.8
20260503190505 61 60 0.9 7.0 0.00 0.00 0.00 32 1017.8
20260503190007 62 227 1.7 5.2 0.00 0.00 0.00 31 1018.1
20260503185506 61 245 2.6 5.2 0.00 0.00 0.00 30 1018.1
20260503185005 62 273 2.6 4.3 0.00 0.00 0.00 31 1018.2
20260503184506 62 90 1.7 2.6 0.00 0.00 0.00 30 1018.2
20260503184005 61 176 1.7 4.3 0.00 0.00 0.00 30 1018.4
20260503183505 61 244 3.5 8.7 0.00 0.00 0.00 33 1018.5
20260503183007 63 251 1.7 5.2 0.00 0.00 0.00 30 1018.6
20260503182506 63 304 1.7 2.6 0.00 0.00 0.00 33 1018.6
20260503182006 62 73 0.9 2.6 0.00 0.00 0.00 31 1018.6
20260503181506 61 270 1.7 2.6 0.00 0.00 0.00 31 1018.7
20260503181006 61 234 2.6 7.8 0.00 0.00 0.00 30 1018.8
20260503180506 60 175 0.9 4.3 0.00 0.00 0.00 32 1018.8
20260503180005 59 216 2.6 7.0 0.00 0.00 0.00 31 1018.8
20260503175006 60 309 0.9 2.6 0.00 0.00 0.00 34 1019.0
20260503174505 58 288 0.9 2.6 0.00 0.00 0.00 37 1019.0
20260503174005 58 243 2.6 6.1 0.00 0.00 0.00 33 1019.1
20260503173506 58 290 1.7 6.1 0.00 0.00 0.00 33 1019.2
20260503173006 58 235 1.7 2.6 0.00 0.00 0.00 37 1019.2
20260503172505 58 136 2.6 7.8 0.00 0.00 0.00 33 1019.3
20260503172005 58 255 1.7 6.1 0.00 0.00 0.00 34 1019.4
20260503171506 59 228 1.7 5.2 0.00 0.00 0.00 34 1019.4
20260503171005 59 243 1.7 2.6 0.00 0.00 0.00 34 1019.6
20260503170505 59 3 0.0 1.7 0.00 0.00 0.00 37 1019.6
20260503151005 50 29 0.9 5.2 0.00 0.00 0.00 43 1020.5
20260503150505 49 276 0.9 2.6 0.00 0.00 0.00 44 1020.6
20260503130505 44 250 1.7 7.0 0.00 0.00 0.00 55 1020.5